Weather History for Houghton Lake, MI

Change the Weather History Date:

Friday, January 4, 2013

  Actual Average Record
Temperature  
Mean Temperature 24 °F 19 °F  
Max Temperature 26 °F 27 °F 51 °F (1950)
Min Temperature 21 °F 12 °F -26 °F (1981)
Degree Days  
Heating Degree Days 42 46  
Month to date heating degree days 183  
Since 1 July heating degree days 3340  
Moisture  
Dew Point 19 °F    
Average Humidity 79    
Maximum Humidity 92    
Minimum Humidity 69    
Precipitation  
Precipitation 0.00 in 0.05 in 0.93 in (1982)
Month to date precipitation 0.21  
Year to date precipitation 0.21  
Snow  
Snow 0.00 in 0.60 in 9.80 in (1982)
Month to date snowfall 2.1  
Since 1 July snowfall 27.1  
Snow Depth -    
Sea Level Pressure  
Sea Level Pressure 29.98 in    
Wind  
Wind Speed 14 mph (WSW)    
Max Wind Speed 20 mph    
Max Gust Speed 30 mph    
Visibility 10 miles    
Events      
T = Trace of Precipitation, MM = Missing Value Source: NWS Daily Summary

Daily Weather History Graph

Daily Weather History Graph

Search for Another Location

Airport:

Trip Planner

Search our weather history database for the weather conditions in past years. The results will help you decide how hot, cold, wet, or windy it might be!

Date:

Astronomy

Jan. 04, 2013 Rise Set
Actual Time 8:14 AM EST 5:13 PM EST
Civil Twilight 7:41 AM EST 5:46 PM EST
Nautical Twilight 7:05 AM EST 6:22 PM EST
Astronomical Twilight 6:29 AM EST 6:57 PM EST
Moon 12:03 AM EST (1/4) 11:39 AM EST (1/4)
Length of Visible Light 10h 04m
Length of Day
8h 58m
Waning Gibbous, 55% of the Moon is Illuminated
Jan 4
Waning Gibbous
Jan 4
Last Quarter
Jan 11
New
Jan 18
First Quarter
Jan 26
Full

Hourly Weather History & Observations

Time (EST) Temp. Windchill Dew Point Humidity Pressure Visibility Wind Dir Wind Speed Gust Speed Precip Events Conditions
12:53 AM 25.0 °F 13.1 °F 19.9 °F 81% 30.02 in 10.0 mi WSW 13.8 mph 21.9 mph N/A   Overcast
1:11 AM 24.8 °F 12.4 °F 19.4 °F 80% 29.95 in 10.0 mi WSW 15.0 mph 28.8 mph N/A   Overcast
1:53 AM 25.0 °F 10.9 °F 19.0 °F 78% 29.98 in 9.0 mi WSW 19.6 mph 29.9 mph N/A   Overcast
2:46 AM 24.8 °F 11.1 °F 17.6 °F 74% 29.93 in 10.0 mi WSW 18.4 mph 26.5 mph N/A   Partly Cloudy
2:53 AM 24.1 °F 11.5 °F 18.0 °F 77% 29.98 in 10.0 mi WSW 15.0 mph 26.5 mph N/A   Partly Cloudy
3:53 AM 23.0 °F 9.6 °F 18.0 °F 81% 29.96 in 10.0 mi SW 16.1 mph 23.0 mph N/A   Clear
4:53 AM 23.0 °F 9.6 °F 17.1 °F 78% 29.94 in 10.0 mi WSW 16.1 mph 25.3 mph N/A   Clear
5:53 AM 23.0 °F 10.6 °F 17.1 °F 78% 29.95 in 10.0 mi WSW 13.8 mph 23.0 mph N/A   Clear
6:53 AM 21.9 °F 7.8 °F 17.1 °F 82% 29.95 in 10.0 mi WSW 17.3 mph 25.3 mph N/A   Clear
7:53 AM 21.9 °F 9.2 °F 17.1 °F 82% 29.94 in 10.0 mi WSW 13.8 mph 20.7 mph N/A   Scattered Clouds
8:53 AM 21.9 °F 8.7 °F 17.1 °F 82% 29.92 in 10.0 mi WSW 15.0 mph - N/A   Partly Cloudy
9:49 AM 24.8 °F 13.4 °F 17.6 °F 74% 29.88 in 10.0 mi WSW 12.7 mph - N/A   Mostly Cloudy
9:53 AM 24.1 °F 12.5 °F 18.0 °F 77% 29.93 in 10.0 mi WSW 12.7 mph - N/A   Mostly Cloudy
10:53 AM 25.0 °F 12.2 °F 19.0 °F 78% 29.96 in 10.0 mi West 16.1 mph 21.9 mph N/A   Overcast
11:53 AM 25.0 °F 12.2 °F 19.0 °F 78% 29.96 in 10.0 mi West 16.1 mph 26.5 mph N/A   Overcast
12:53 PM 26.1 °F 15.0 °F 19.9 °F 78% 29.94 in 10.0 mi West 12.7 mph 19.6 mph N/A   Overcast
1:53 PM 26.1 °F 14.5 °F 19.9 °F 78% 29.93 in 10.0 mi WSW 13.8 mph - N/A   Overcast
2:53 PM 26.1 °F 14.0 °F 19.0 °F 75% 29.93 in 10.0 mi WSW 15.0 mph 21.9 mph N/A   Overcast
3:24 PM 26.6 °F 15.2 °F 19.4 °F 74% 29.89 in 10.0 mi WSW 13.8 mph - N/A   Scattered Clouds
3:53 PM 26.1 °F 15.0 °F 19.0 °F 75% 29.95 in 10.0 mi WSW 12.7 mph 20.7 mph N/A   Clear
4:53 PM 26.1 °F 13.6 °F 19.0 °F 75% 29.97 in 10.0 mi WSW 16.1 mph 20.7 mph N/A   Clear
5:53 PM 24.1 °F 12.5 °F 18.0 °F 77% 29.99 in 10.0 mi WSW 12.7 mph 21.9 mph N/A   Clear
6:42 PM 24.8 °F 15.3 °F 19.4 °F 80% 29.97 in 10.0 mi WSW 9.2 mph - N/A   Mostly Cloudy
6:53 PM 24.1 °F 13.1 °F 19.0 °F 81% 30.03 in 10.0 mi WSW 11.5 mph - N/A   Overcast
7:40 PM 24.8 °F 14.6 °F 19.4 °F 80% 29.99 in 10.0 mi WSW 10.4 mph - N/A   Scattered Clouds
7:53 PM 24.1 °F 15.2 °F 19.9 °F 84% 30.05 in 10.0 mi West 8.1 mph - N/A   Clear
8:53 PM 24.1 °F 16.0 °F 19.9 °F 84% 30.06 in 10.0 mi WSW 6.9 mph - N/A   Clear
9:53 PM 25.0 °F 17.1 °F 21.0 °F 85% 30.06 in 10.0 mi WSW 6.9 mph - N/A   Clear
10:53 PM 24.1 °F 16.0 °F 21.0 °F 88% 30.09 in 10.0 mi West 6.9 mph - N/A   Clear
11:53 PM 23.0 °F 18.4 °F 21.0 °F 92% 30.12 in 10.0 mi WSW 3.5 mph - N/A   Clear